Tracking 18987 objects as of 25-Feb-2018
HD Live streaming from Space Station
objects crossing your sky now

FENGYUN 1C DEB

Track FENGYUN 1C DEB now!
10-day predictions


NORAD ID: 37042
Int'l Code: 1999-025EEA
Perigee: 705.5 km
Apogee: 853.5 km
Inclination: 98.8 °
Period: 100.3 minutes
Semi major axis: 7150 km
RCS: 0.0054 m2 (small)
Launch date: May 10, 1999
Source: People's Republic of China (PRC)
Launch site: Taiyaun Space Center, China (TSC)

Note: This is SATELLITE DEBRIS
aabbcc
Your satellite tracking list
Your tracking list is empty




NASA's NSSDC Master Catalog

Two Line Element Set (TLE):
1 37042U 99025EEA 18055.89559523  .00000649  00000-0  22664-3 0  9998
2 37042  98.7532  94.2349 0103506 295.8257  63.2281 14.35818901539780
Source of the keplerian elements: AFSPC